Time,TemperatureF,DewpointF,PressureIn,WindDirection,WindDirectionDegrees,WindSpeedMPH,WindSpeedGustMPH,Humidity,HourlyPrecipIn,Conditions,Clouds,dailyrainin,SoftwareType,DateUTC
2013-05-09 00:00:00,64.0,44.5,30.04,South,178,0.0,0.0,49,0.00,,---,0.00,VWS V13.01,2013-05-09 07:00:00,
2013-05-09 00:06:00,64.0,44.5,30.04,South,178,0.0,0.0,49,0.00,,---,0.00,VWS V13.01,2013-05-09 07:06:00,
2013-05-09 00:12:00,64.0,44.5,30.04,South,178,0.0,0.0,49,0.00,,---,0.00,VWS V13.01,2013-05-09 07:12:00,
2013-05-09 00:18:00,64.0,44.5,30.04,South,178,0.0,0.0,49,0.00,,---,0.00,VWS V13.01,2013-05-09 07:18:00,
2013-05-09 00:24:00,64.0,44.5,30.04,South,178,0.0,0.0,49,0.00,,---,0.00,VWS V13.01,2013-05-09 07:24:00,
2013-05-09 00:29:00,64.0,44.5,30.04,South,178,0.0,0.0,49,0.00,,---,0.00,VWS V13.01,2013-05-09 07:29:00,
2013-05-09 00:34:00,64.0,44.5,30.04,South,178,0.0,0.0,49,0.00,,---,0.00,VWS V13.01,2013-05-09 07:34:00,
2013-05-09 00:40:00,64.0,44.5,30.04,South,178,0.0,0.0,49,0.00,,---,0.00,VWS V13.01,2013-05-09 07:40:00,
2013-05-09 00:45:00,64.0,44.5,30.04,South,178,0.0,0.0,49,0.00,,---,0.00,VWS V13.01,2013-05-09 07:45:00,
2013-05-09 00:50:00,64.0,44.5,30.04,South,178,0.0,0.0,49,0.00,,---,0.00,VWS V13.01,2013-05-09 07:50:00,
2013-05-09 00:56:00,64.0,44.5,30.04,South,178,0.0,0.0,49,0.00,,---,0.00,VWS V13.01,2013-05-09 07:56:00,
2013-05-09 01:02:00,64.0,44.5,30.04,South,178,0.0,0.0,49,0.00,,---,0.00,VWS V13.01,2013-05-09 08:02:00,
2013-05-09 01:08:00,64.0,44.5,30.04,South,178,0.0,0.0,49,0.00,,---,0.00,VWS V13.01,2013-05-09 08:08:00,
2013-05-09 01:14:00,64.0,44.5,30.04,South,178,0.0,0.0,49,0.00,,---,0.00,VWS V13.01,2013-05-09 08:14:00,
2013-05-09 01:19:00,64.0,44.5,30.04,South,178,0.0,0.0,49,0.00,,---,0.00,VWS V13.01,2013-05-09 08:19:00,
2013-05-09 01:24:00,64.0,44.5,30.04,South,178,0.0,0.0,49,0.00,,---,0.00,VWS V13.01,2013-05-09 08:24:00,
2013-05-09 01:30:00,64.0,44.5,30.04,South,178,0.0,0.0,49,0.00,,---,0.00,VWS V13.01,2013-05-09 08:30:00,
2013-05-09 01:35:00,64.0,44.5,30.04,South,178,0.0,0.0,49,0.00,,---,0.00,VWS V13.01,2013-05-09 08:35:00,
2013-05-09 01:40:00,64.0,44.5,30.04,South,178,0.0,0.0,49,0.00,,---,0.00,VWS V13.01,2013-05-09 08:40:00,
2013-05-09 01:46:00,64.0,44.5,30.04,South,178,0.0,0.0,49,0.00,,---,0.00,VWS V13.01,2013-05-09 08:46:00,
2013-05-09 01:52:00,64.0,44.5,30.04,South,178,0.0,0.0,49,0.00,,---,0.00,VWS V13.01,2013-05-09 08:52:00,
2013-05-09 01:58:00,64.0,44.5,30.04,South,178,0.0,0.0,49,0.00,,---,0.00,VWS V13.01,2013-05-09 08:58:00,
2013-05-09 02:04:00,64.0,44.5,30.04,South,178,0.0,0.0,49,0.00,,---,0.00,VWS V13.01,2013-05-09 09:04:00,
2013-05-09 02:09:00,64.0,44.5,30.04,South,178,0.0,0.0,49,0.00,,---,0.00,VWS V13.01,2013-05-09 09:09:00,
2013-05-09 02:14:00,64.0,44.5,30.01,South,178,0.0,0.0,49,0.00,,---,0.00,VWS V13.01,2013-05-09 09:14:00,
2013-05-09 02:20:00,64.0,44.5,30.01,South,178,0.0,0.0,49,0.00,,---,0.00,VWS V13.01,2013-05-09 09:20:00,
2013-05-09 02:25:00,64.0,44.5,30.01,South,178,0.0,0.0,49,0.00,,---,0.00,VWS V13.01,2013-05-09 09:25:00,
2013-05-09 02:30:00,64.0,44.5,30.01,South,178,0.0,0.0,49,0.00,,---,0.00,VWS V13.01,2013-05-09 09:30:00,
2013-05-09 02:36:00,64.0,44.5,30.01,South,178,0.0,0.0,49,0.00,,---,0.00,VWS V13.01,2013-05-09 09:36:00,
2013-05-09 02:42:00,64.0,44.5,30.01,South,178,0.0,0.0,49,0.00,,---,0.00,VWS V13.01,2013-05-09 09:42:00,
2013-05-09 02:48:00,64.0,44.5,30.01,South,178,0.0,0.0,49,0.00,,---,0.00,VWS V13.01,2013-05-09 09:48:00,
2013-05-09 02:54:00,64.0,44.5,30.01,South,178,0.0,0.0,49,0.00,,---,0.00,VWS V13.01,2013-05-09 09:54:00,
2013-05-09 02:59:00,64.0,44.5,30.01,South,178,0.0,0.0,49,0.00,,---,0.00,VWS V13.01,2013-05-09 09:59:00,
2013-05-09 03:05:00,64.0,44.5,30.01,South,178,0.0,0.0,49,0.00,,---,0.00,VWS V13.01,2013-05-09 10:05:00,
2013-05-09 03:10:00,64.0,44.5,30.01,South,178,0.0,0.0,49,0.00,,---,0.00,VWS V13.01,2013-05-09 10:10:00,
2013-05-09 03:15:00,64.0,44.5,30.01,South,178,0.0,0.0,49,0.00,,---,0.00,VWS V13.01,2013-05-09 10:15:00,
2013-05-09 03:21:00,64.0,44.5,30.01,South,178,0.0,0.0,49,0.00,,---,0.00,VWS V13.01,2013-05-09 10:21:00,
2013-05-09 03:27:00,64.0,44.5,30.01,South,178,0.0,0.0,49,0.00,,---,0.00,VWS V13.01,2013-05-09 10:27:00,
2013-05-09 03:33:00,64.0,44.5,30.01,South,178,0.0,0.0,49,0.00,,---,0.00,VWS V13.01,2013-05-09 10:33:00,
2013-05-09 03:39:00,64.0,44.5,30.01,South,178,0.0,0.0,49,0.00,,---,0.00,VWS V13.01,2013-05-09 10:39:00,
2013-05-09 03:44:00,64.0,44.5,30.01,South,178,0.0,0.0,49,0.00,,---,0.00,VWS V13.01,2013-05-09 10:44:00,
2013-05-09 03:49:00,64.0,44.5,30.01,South,178,0.0,0.0,49,0.00,,---,0.00,VWS V13.01,2013-05-09 10:49:00,
2013-05-09 03:55:00,64.0,44.5,30.01,South,178,0.0,0.0,49,0.00,,---,0.00,VWS V13.01,2013-05-09 10:55:00,
2013-05-09 04:00:00,64.0,44.5,30.01,South,178,0.0,0.0,49,0.00,,---,0.00,VWS V13.01,2013-05-09 11:00:00,
2013-05-09 04:07:00,64.0,44.5,30.01,South,178,0.0,0.0,49,0.00,,---,0.00,VWS V13.01,2013-05-09 11:07:00,
2013-05-09 04:13:00,64.0,44.5,30.01,South,178,0.0,0.0,49,0.00,,---,0.00,VWS V13.01,2013-05-09 11:13:00,
2013-05-09 04:19:00,64.0,44.5,30.01,South,178,0.0,0.0,49,0.00,,---,0.00,VWS V13.01,2013-05-09 11:19:00,
2013-05-09 04:25:00,64.0,44.5,30.01,South,178,0.0,0.0,49,0.00,,---,0.00,VWS V13.01,2013-05-09 11:25:00,
2013-05-09 04:30:00,64.0,44.5,30.01,South,178,0.0,0.0,49,0.00,,---,0.00,VWS V13.01,2013-05-09 11:30:00,
2013-05-09 04:35:00,64.0,44.5,30.01,South,178,0.0,0.0,49,0.00,,---,0.00,VWS V13.01,2013-05-09 11:35:00,
2013-05-09 04:41:00,64.0,44.5,30.01,South,178,0.0,0.0,49,0.00,,---,0.00,VWS V13.01,2013-05-09 11:41:00,
2013-05-09 04:47:00,64.0,44.5,30.01,South,178,0.0,0.0,49,0.00,,---,0.00,VWS V13.01,2013-05-09 11:47:00,
2013-05-09 04:53:00,64.0,44.5,30.01,South,178,0.0,0.0,49,0.00,,---,0.00,VWS V13.01,2013-05-09 11:53:00,
2013-05-09 04:59:00,64.0,44.5,30.01,South,178,0.0,0.0,49,0.00,,---,0.00,VWS V13.01,2013-05-09 11:59:00,
2013-05-09 05:05:00,64.0,44.5,30.01,South,178,0.0,0.0,49,0.00,,---,0.00,VWS V13.01,2013-05-09 12:05:00,
2013-05-09 05:11:00,64.0,44.5,30.01,South,178,0.0,0.0,49,0.00,,---,0.00,VWS V13.01,2013-05-09 12:11:00,
2013-05-09 05:17:00,64.0,44.5,30.01,South,178,0.0,0.0,49,0.00,,---,0.00,VWS V13.01,2013-05-09 12:17:00,
2013-05-09 05:23:00,64.0,44.5,30.01,South,178,0.0,0.0,49,0.00,,---,0.00,VWS V13.01,2013-05-09 12:23:00,
2013-05-09 05:29:00,64.0,44.5,30.01,South,178,0.0,0.0,49,0.00,,---,0.00,VWS V13.01,2013-05-09 12:29:00,
2013-05-09 05:35:00,64.0,44.5,30.01,South,178,0.0,0.0,49,0.00,,---,0.00,VWS V13.01,2013-05-09 12:35:00,
2013-05-09 05:40:00,64.0,44.5,30.01,South,178,0.0,0.0,49,0.00,,---,0.00,VWS V13.01,2013-05-09 12:40:00,
2013-05-09 05:45:00,64.0,44.5,30.01,South,178,0.0,0.0,49,0.00,,---,0.00,VWS V13.01,2013-05-09 12:45:00,
2013-05-09 05:51:00,64.0,44.5,30.01,South,178,0.0,0.0,49,0.00,,---,0.00,VWS V13.01,2013-05-09 12:51:00,
2013-05-09 05:57:00,64.0,44.5,30.01,South,178,0.0,0.0,49,0.00,,---,0.00,VWS V13.01,2013-05-09 12:57:00,
2013-05-09 06:03:00,52.0,44.3,30.01,South,178,0.0,0.0,75,0.00,,---,0.00,VWS V13.01,2013-05-09 13:03:00,
2013-05-09 06:09:00,52.0,44.3,30.01,South,178,0.0,0.0,75,0.00,,---,0.00,VWS V13.01,2013-05-09 13:09:00,
2013-05-09 06:14:00,52.0,44.7,30.01,South,178,0.0,0.0,76,0.00,,---,0.00,VWS V13.01,2013-05-09 13:14:00,
2013-05-09 06:20:00,52.0,44.7,30.01,South,178,0.0,0.0,76,0.00,,---,0.00,VWS V13.01,2013-05-09 13:20:00,
2013-05-09 06:25:00,52.2,44.8,30.01,South,178,0.0,0.0,76,0.00,,---,0.00,VWS V13.01,2013-05-09 13:25:00,
2013-05-09 06:31:00,52.5,45.5,30.01,South,178,0.0,0.0,77,0.00,,---,0.00,VWS V13.01,2013-05-09 13:31:00,
2013-05-09 06:37:00,52.7,45.7,30.01,South,178,0.0,0.0,77,0.00,,---,0.00,VWS V13.01,2013-05-09 13:37:00,
2013-05-09 06:43:00,53.1,46.0,30.01,South,178,0.0,0.0,77,0.00,,---,0.00,VWS V13.01,2013-05-09 13:43:00,
2013-05-09 06:49:00,53.6,46.6,30.01,South,178,0.0,0.0,77,0.00,,---,0.00,VWS V13.01,2013-05-09 13:49:00,
2013-05-09 06:54:00,54.0,46.9,30.01,South,178,0.0,0.0,77,0.00,,---,0.00,VWS V13.01,2013-05-09 13:54:00,
2013-05-09 07:00:00,54.5,47.5,30.01,South,178,0.0,0.0,77,0.00,,---,0.00,VWS V13.01,2013-05-09 14:00:00,
2013-05-09 07:05:00,55.0,48.3,30.01,South,178,0.0,0.0,78,0.00,,---,0.00,VWS V13.01,2013-05-09 14:05:00,
2013-05-09 07:11:00,55.9,48.8,30.01,South,178,0.0,0.0,77,0.00,,---,0.00,VWS V13.01,2013-05-09 14:11:00,
2013-05-09 07:17:00,57.2,50.1,30.01,South,178,0.0,0.0,77,0.00,,---,0.00,VWS V13.01,2013-05-09 14:17:00,
2013-05-09 07:23:00,57.9,50.4,30.01,South,178,0.0,0.0,76,0.00,,---,0.00,VWS V13.01,2013-05-09 14:23:00,
2013-05-09 07:29:00,57.9,50.4,30.01,South,178,0.0,0.0,76,0.00,,---,0.00,VWS V13.01,2013-05-09 14:29:00,
2013-05-09 07:34:00,58.3,49.3,30.01,South,178,0.0,0.0,72,0.00,,---,0.00,VWS V13.01,2013-05-09 14:34:00,
2013-05-09 07:39:00,58.8,49.5,30.01,South,178,0.0,0.0,71,0.00,,---,0.00,VWS V13.01,2013-05-09 14:39:00,
2013-05-09 07:45:00,59.0,48.1,30.01,South,178,0.0,0.0,67,0.00,,---,0.00,VWS V13.01,2013-05-09 14:45:00,
2013-05-09 07:50:00,59.0,47.3,30.01,South,178,0.0,0.0,65,0.00,,---,0.00,VWS V13.01,2013-05-09 14:50:00,
2013-05-09 07:55:00,59.4,46.8,30.01,South,178,0.0,0.0,63,0.00,,---,0.00,VWS V13.01,2013-05-09 14:55:00,
2013-05-09 08:01:00,59.7,46.7,30.01,South,178,0.0,0.0,62,0.00,,---,0.00,VWS V13.01,2013-05-09 15:01:00,
2013-05-09 08:07:00,59.9,46.0,30.01,South,178,0.0,0.0,60,0.00,,---,0.00,VWS V13.01,2013-05-09 15:07:00,
2013-05-09 08:13:00,59.9,46.0,30.01,South,178,0.0,0.0,60,0.00,,---,0.00,VWS V13.01,2013-05-09 15:13:00,
2013-05-09 08:19:00,60.1,46.2,30.01,South,178,0.0,0.0,60,0.00,,---,0.00,VWS V13.01,2013-05-09 15:19:00,
2013-05-09 08:24:00,60.1,46.2,30.01,South,178,0.0,0.0,60,0.00,,---,0.00,VWS V13.01,2013-05-09 15:24:00,
2013-05-09 08:29:00,60.1,46.2,30.01,South,178,0.0,0.0,60,0.00,,---,0.00,VWS V13.01,2013-05-09 15:29:00,
2013-05-09 08:35:00,60.8,46.4,30.01,South,178,0.0,0.0,59,0.00,,---,0.00,VWS V13.01,2013-05-09 15:35:00,
2013-05-09 08:41:00,61.5,47.1,30.01,South,178,0.0,0.0,59,0.00,,---,0.00,VWS V13.01,2013-05-09 15:41:00,
2013-05-09 08:47:00,61.9,46.5,30.01,South,178,0.0,0.0,57,0.00,,---,0.00,VWS V13.01,2013-05-09 15:47:00,
2013-05-09 08:53:00,62.2,46.4,30.01,South,178,0.0,0.0,56,0.00,,---,0.00,VWS V13.01,2013-05-09 15:53:00,
2013-05-09 08:59:00,62.8,46.4,30.01,South,178,0.0,0.0,55,0.00,,---,0.00,VWS V13.01,2013-05-09 15:59:00,
2013-05-09 09:05:00,63.3,46.4,30.01,South,178,0.0,0.0,54,0.00,,---,0.00,VWS V13.01,2013-05-09 16:05:00,
2013-05-09 09:10:00,63.9,46.4,30.01,South,178,0.0,0.0,53,0.00,,---,0.00,VWS V13.01,2013-05-09 16:10:00,
2013-05-09 09:15:00,64.4,46.4,30.01,South,178,0.0,0.0,52,0.00,,---,0.00,VWS V13.01,2013-05-09 16:15:00,
2013-05-09 09:21:00,65.3,46.2,30.01,South,178,0.0,0.0,50,0.00,,---,0.00,VWS V13.01,2013-05-09 16:21:00,
2013-05-09 09:27:00,65.5,46.4,30.01,South,178,0.0,0.0,50,0.00,,---,0.00,VWS V13.01,2013-05-09 16:27:00,
2013-05-09 09:33:00,64.8,45.7,30.01,South,178,0.0,0.0,50,0.00,,---,0.00,VWS V13.01,2013-05-09 16:33:00,
2013-05-09 09:40:00,65.3,46.2,30.01,South,178,0.0,0.0,50,0.00,,---,0.00,VWS V13.01,2013-05-09 16:40:00,
2013-05-09 09:44:00,65.8,46.7,30.01,South,178,0.0,0.0,50,0.00,,---,0.00,VWS V13.01,2013-05-09 16:44:00,
2013-05-09 09:50:00,66.4,46.7,30.01,South,178,0.0,0.0,49,0.00,,---,0.00,VWS V13.01,2013-05-09 16:50:00,
2013-05-09 09:55:00,66.0,46.3,30.01,South,178,0.0,0.0,49,0.00,,---,0.00,VWS V13.01,2013-05-09 16:55:00,
2013-05-09 10:00:00,66.0,46.3,30.01,South,178,0.0,0.0,49,0.00,,---,0.00,VWS V13.01,2013-05-09 17:00:00,
2013-05-09 10:06:00,66.2,46.5,30.01,South,178,0.0,0.0,49,0.00,,---,0.00,VWS V13.01,2013-05-09 17:06:00,
2013-05-09 10:12:00,66.7,46.5,30.01,South,178,0.0,0.0,48,0.00,,---,0.00,VWS V13.01,2013-05-09 17:12:00,
2013-05-09 10:18:00,67.1,47.3,30.01,South,178,0.0,0.0,49,0.00,,---,0.00,VWS V13.01,2013-05-09 17:18:00,
2013-05-09 10:24:00,67.3,46.9,30.01,South,178,0.0,0.0,48,0.00,,---,0.00,VWS V13.01,2013-05-09 17:24:00,
2013-05-09 10:30:00,67.3,46.9,30.01,South,178,0.0,0.0,48,0.00,,---,0.00,VWS V13.01,2013-05-09 17:30:00,
2013-05-09 10:36:00,68.0,47.0,30.01,South,178,0.0,0.0,47,0.00,,---,0.00,VWS V13.01,2013-05-09 17:36:00,
2013-05-09 10:42:00,68.0,47.0,30.01,South,178,0.0,0.0,47,0.00,,---,0.00,VWS V13.01,2013-05-09 17:42:00,
2013-05-09 10:48:00,68.2,47.2,30.01,South,178,0.0,0.0,47,0.00,,---,0.00,VWS V13.01,2013-05-09 17:48:00,
2013-05-09 10:54:00,68.5,47.5,30.01,South,178,0.0,0.0,47,0.00,,---,0.00,VWS V13.01,2013-05-09 17:54:00,
2013-05-09 11:00:00,69.3,48.2,30.01,South,178,0.0,0.0,47,0.00,,---,0.00,VWS V13.01,2013-05-09 18:00:00,
2013-05-09 11:06:00,69.3,48.2,30.01,South,178,0.0,0.0,47,0.00,,---,0.00,VWS V13.01,2013-05-09 18:06:00,
2013-05-09 11:12:00,71.1,49.8,30.01,South,178,0.0,0.0,47,0.00,,---,0.00,VWS V13.01,2013-05-09 18:12:00,
2013-05-09 11:18:00,71.6,48.6,30.01,South,178,0.0,0.0,44,0.00,,---,0.00,VWS V13.01,2013-05-09 18:18:00,
2013-05-09 11:24:00,71.8,46.8,30.01,South,178,0.0,0.0,41,0.00,,---,0.00,VWS V13.01,2013-05-09 18:24:00,
2013-05-09 11:29:00,71.4,47.2,30.01,South,178,0.0,0.0,42,0.00,,---,0.00,VWS V13.01,2013-05-09 18:29:00,
2013-05-09 11:36:00,72.0,47.0,30.01,South,178,0.0,0.0,41,0.00,,---,0.00,VWS V13.01,2013-05-09 18:36:00,
2013-05-09 11:42:00,72.0,47.0,30.01,South,178,0.0,0.0,41,0.00,,---,0.00,VWS V13.01,2013-05-09 18:42:00,
2013-05-09 11:48:00,72.5,46.2,30.01,South,178,0.0,0.0,39,0.00,,---,0.00,VWS V13.01,2013-05-09 18:48:00,
2013-05-09 11:54:00,72.7,46.3,30.01,South,178,0.0,0.0,39,0.00,,---,0.00,VWS V13.01,2013-05-09 18:54:00,
2013-05-09 11:59:00,72.7,46.3,30.01,South,178,0.0,0.0,39,0.00,,---,0.00,VWS V13.01,2013-05-09 18:59:00,
2013-05-09 12:04:00,72.9,46.5,30.01,South,178,0.0,0.0,39,0.00,,---,0.00,VWS V13.01,2013-05-09 19:04:00,
2013-05-09 12:09:00,73.0,46.6,30.01,South,178,0.0,0.0,39,0.00,,---,0.00,VWS V13.01,2013-05-09 19:09:00,
2013-05-09 12:14:00,73.0,46.6,30.01,South,178,0.0,0.0,39,0.00,,---,0.00,VWS V13.01,2013-05-09 19:14:00,
2013-05-09 12:19:00,74.3,47.1,30.01,SSE,155,0.0,0.0,38,0.00,,---,0.00,VWS V13.01,2013-05-09 19:19:00,
2013-05-09 12:24:00,75.2,47.9,30.01,SSE,155,0.0,0.0,38,0.00,,---,0.00,VWS V13.01,2013-05-09 19:24:00,
2013-05-09 12:29:00,75.7,46.2,30.01,SE,141,2.2,2.2,35,0.00,,---,0.00,VWS V13.01,2013-05-09 19:29:00,
2013-05-09 12:34:00,75.2,47.9,30.01,SE,141,2.2,2.2,38,0.00,,---,0.00,VWS V13.01,2013-05-09 19:34:00,
2013-05-09 12:39:00,75.7,48.4,30.01,South,172,0.0,0.0,38,0.00,,---,0.00,VWS V13.01,2013-05-09 19:39:00,
2013-05-09 12:44:00,75.7,48.4,30.01,SSE,148,2.7,2.7,38,0.00,,---,0.00,VWS V13.01,2013-05-09 19:44:00,
2013-05-09 12:49:00,76.3,48.8,30.01,SSE,149,0.0,0.0,38,0.00,,---,0.00,VWS V13.01,2013-05-09 19:49:00,
2013-05-09 12:54:00,76.1,46.5,30.01,SSE,149,0.0,0.0,35,0.00,,---,0.00,VWS V13.01,2013-05-09 19:54:00,
2013-05-09 12:59:00,75.7,46.2,30.01,SSE,149,0.0,0.0,35,0.00,,---,0.00,VWS V13.01,2013-05-09 19:59:00,
2013-05-09 13:04:00,75.7,48.4,30.01,SSE,149,0.0,0.0,38,0.00,,---,0.00,VWS V13.01,2013-05-09 20:04:00,
2013-05-09 13:09:00,76.6,49.2,30.01,SSE,149,0.0,0.0,38,0.00,,---,0.00,VWS V13.01,2013-05-09 20:09:00,
2013-05-09 13:14:00,76.8,47.1,30.01,ESE,118,3.6,3.6,35,0.00,,---,0.00,VWS V13.01,2013-05-09 20:14:00,
2013-05-09 13:19:00,77.2,47.4,30.01,SSE,164,0.0,0.0,35,0.00,,---,0.00,VWS V13.01,2013-05-09 20:19:00,
2013-05-09 13:26:00,78.4,48.5,29.98,SSE,156,3.1,3.1,35,0.00,,---,0.00,VWS V13.01,2013-05-09 20:26:00,
2013-05-09 13:32:00,78.4,48.5,29.98,South,191,3.6,3.6,35,0.00,,---,0.00,VWS V13.01,2013-05-09 20:32:00,
2013-05-09 13:38:00,78.4,48.5,29.98,ENE,67,0.0,0.0,35,0.00,,---,0.00,VWS V13.01,2013-05-09 20:38:00,
2013-05-09 13:44:00,79.3,49.3,29.98,ENE,67,0.0,0.0,35,0.00,,---,0.00,VWS V13.01,2013-05-09 20:44:00,
2013-05-09 13:49:00,79.9,49.8,29.98,SE,137,0.0,2.2,35,0.00,,---,0.00,VWS V13.01,2013-05-09 20:49:00,
2013-05-09 13:54:00,79.9,49.8,29.98,South,183,0.0,0.0,35,0.00,,---,0.00,VWS V13.01,2013-05-09 20:54:00,
2013-05-09 13:59:00,79.9,49.8,29.98,SE,135,2.7,2.7,35,0.00,,---,0.00,VWS V13.01,2013-05-09 20:59:00,
2013-05-09 14:04:00,79.7,49.7,29.98,SE,142,4.0,4.0,35,0.00,,---,0.00,VWS V13.01,2013-05-09 21:04:00,
2013-05-09 14:09:00,79.7,49.7,29.98,SW,214,3.6,3.6,35,0.00,,---,0.00,VWS V13.01,2013-05-09 21:09:00,
2013-05-09 14:14:00,79.9,49.8,29.98,South,187,2.2,2.2,35,0.00,,---,0.00,VWS V13.01,2013-05-09 21:14:00,
2013-05-09 14:19:00,79.7,49.7,29.98,SE,140,0.0,0.0,35,0.00,,---,0.00,VWS V13.01,2013-05-09 21:19:00,
2013-05-09 14:24:00,79.7,49.7,29.98,SE,143,0.0,0.0,35,0.00,,---,0.00,VWS V13.01,2013-05-09 21:24:00,
2013-05-09 14:29:00,79.9,49.8,29.98,SE,143,0.0,0.0,35,0.00,,---,0.00,VWS V13.01,2013-05-09 21:29:00,
2013-05-09 14:34:00,79.9,49.8,29.98,SE,143,0.0,0.0,35,0.00,,---,0.00,VWS V13.01,2013-05-09 21:34:00,
2013-05-09 14:39:00,79.9,49.8,29.98,SSE,153,2.2,2.2,35,0.00,,---,0.00,VWS V13.01,2013-05-09 21:39:00,
2013-05-09 14:44:00,79.9,49.8,29.98,WSW,253,0.0,0.0,35,0.00,,---,0.00,VWS V13.01,2013-05-09 21:44:00,
2013-05-09 14:49:00,79.9,49.8,29.98,WSW,253,0.0,0.0,35,0.00,,---,0.00,VWS V13.01,2013-05-09 21:49:00,
2013-05-09 14:54:00,79.9,49.8,29.98,SSE,168,3.6,3.6,35,0.00,,---,0.00,VWS V13.01,2013-05-09 21:54:00,
2013-05-09 14:59:00,79.9,49.8,29.98,SSE,168,3.6,3.6,35,0.00,,---,0.00,VWS V13.01,2013-05-09 21:59:00,
2013-05-09 15:04:00,79.9,49.8,29.98,SSE,168,3.6,3.6,35,0.00,,---,0.00,VWS V13.01,2013-05-09 22:04:00,
2013-05-09 15:09:00,79.9,49.8,29.98,SSE,168,3.6,3.6,35,0.00,,---,0.00,VWS V13.01,2013-05-09 22:09:00,
2013-05-09 15:14:00,79.9,49.8,29.98,SSE,168,3.6,3.6,35,0.00,,---,0.00,VWS V13.01,2013-05-09 22:14:00,
2013-05-09 15:19:00,79.9,49.8,29.98,SSE,168,3.6,3.6,35,0.00,,---,0.00,VWS V13.01,2013-05-09 22:19:00,
2013-05-09 15:24:00,79.9,49.8,29.96,SSE,168,3.6,3.6,35,0.00,,---,0.00,VWS V13.01,2013-05-09 22:24:00,
2013-05-09 15:29:00,79.9,49.8,29.96,SSE,168,3.6,3.6,35,0.00,,---,0.00,VWS V13.01,2013-05-09 22:29:00,
2013-05-09 15:34:00,79.9,49.8,29.96,SSE,168,3.6,3.6,35,0.00,,---,0.00,VWS V13.01,2013-05-09 22:34:00,
2013-05-09 15:39:00,80.4,50.3,29.96,SSE,168,3.6,3.6,35,0.00,,---,0.00,VWS V13.01,2013-05-09 22:39:00,
2013-05-09 15:44:00,80.4,50.3,29.96,SSE,168,3.6,3.6,35,0.00,,---,0.00,VWS V13.01,2013-05-09 22:44:00,
2013-05-09 15:49:00,80.4,50.3,29.96,SSE,168,3.6,3.6,35,0.00,,---,0.00,VWS V13.01,2013-05-09 22:49:00,
2013-05-09 15:54:00,80.4,50.3,29.96,SSE,168,3.6,3.6,35,0.00,,---,0.00,VWS V13.01,2013-05-09 22:54:00,
2013-05-09 16:00:00,80.4,50.3,29.96,SSE,168,3.6,3.6,35,0.00,,---,0.00,VWS V13.01,2013-05-09 23:00:00,
2013-05-09 16:06:00,80.4,50.3,29.96,SSE,168,3.6,3.6,35,0.00,,---,0.00,VWS V13.01,2013-05-09 23:06:00,
2013-05-09 16:12:00,80.4,50.3,29.96,SSE,168,3.6,3.6,35,0.00,,---,0.00,VWS V13.01,2013-05-09 23:12:00,
2013-05-09 16:18:00,80.4,50.3,29.96,SSE,168,3.6,3.6,35,0.00,,---,0.00,VWS V13.01,2013-05-09 23:18:00,
2013-05-09 16:24:00,80.4,50.3,29.96,SSE,168,3.6,3.6,35,0.00,,---,0.00,VWS V13.01,2013-05-09 23:24:00,
2013-05-09 16:29:00,80.4,50.3,29.96,SSE,168,3.6,3.6,35,0.00,,---,0.00,VWS V13.01,2013-05-09 23:29:00,
2013-05-09 16:34:00,80.4,50.3,29.96,SSE,168,3.6,3.6,35,0.00,,---,0.00,VWS V13.01,2013-05-09 23:34:00,
2013-05-09 16:39:00,80.4,50.3,29.96,SSE,168,3.6,3.6,35,0.00,,---,0.00,VWS V13.01,2013-05-09 23:39:00,
2013-05-09 16:44:00,80.4,50.3,29.96,SSE,168,3.6,3.6,35,0.00,,---,0.00,VWS V13.01,2013-05-09 23:44:00,
2013-05-09 16:49:00,80.4,50.3,29.96,SW,223,0.0,3.6,35,0.00,,---,0.00,VWS V13.01,2013-05-09 23:49:00,
2013-05-09 16:54:00,83.7,52.3,29.96,SW,223,0.0,0.0,34,0.00,,---,0.00,VWS V13.01,2013-05-09 23:54:00,
2013-05-09 16:59:00,83.7,52.3,29.96,SW,223,0.0,0.0,34,0.00,,---,0.00,VWS V13.01,2013-05-09 23:59:00,
2013-05-09 17:04:00,83.7,52.3,29.96,SW,223,0.0,0.0,34,0.00,,---,0.00,VWS V13.01,2013-05-10 00:04:00,
2013-05-09 17:09:00,83.7,52.3,29.96,SW,223,0.0,0.0,34,0.00,,---,0.00,VWS V13.01,2013-05-10 00:09:00,
2013-05-09 17:14:00,83.7,52.3,29.96,SW,223,0.0,0.0,34,0.00,,---,0.00,VWS V13.01,2013-05-10 00:14:00,
2013-05-09 17:19:00,83.7,52.3,29.96,SW,223,0.0,0.0,34,0.00,,---,0.00,VWS V13.01,2013-05-10 00:19:00,
2013-05-09 17:24:00,83.7,52.3,29.96,SW,223,0.0,0.0,34,0.00,,---,0.00,VWS V13.01,2013-05-10 00:24:00,
2013-05-09 17:29:00,83.7,52.3,29.96,SW,223,0.0,0.0,34,0.00,,---,0.00,VWS V13.01,2013-05-10 00:29:00,
2013-05-09 17:34:00,83.7,52.3,29.96,SW,223,0.0,0.0,34,0.00,,---,0.00,VWS V13.01,2013-05-10 00:34:00,
2013-05-09 17:39:00,83.7,52.3,29.96,SW,223,0.0,0.0,34,0.00,,---,0.00,VWS V13.01,2013-05-10 00:39:00,
2013-05-09 17:44:00,83.7,52.3,29.96,SW,223,0.0,0.0,34,0.00,,---,0.00,VWS V13.01,2013-05-10 00:44:00,
2013-05-09 17:49:00,83.7,52.3,29.96,SW,223,0.0,0.0,34,0.00,,---,0.00,VWS V13.01,2013-05-10 00:49:00,
2013-05-09 17:54:00,83.7,52.3,29.96,SW,223,0.0,0.0,34,0.00,,---,0.00,VWS V13.01,2013-05-10 00:54:00,
2013-05-09 17:59:00,83.7,52.3,29.96,SW,223,0.0,0.0,34,0.00,,---,0.00,VWS V13.01,2013-05-10 00:59:00,
2013-05-09 18:04:00,83.7,52.3,29.96,SW,223,0.0,0.0,34,0.00,,---,0.00,VWS V13.01,2013-05-10 01:04:00,
2013-05-09 18:09:00,83.7,52.3,29.96,SE,143,4.0,4.0,34,0.00,,---,0.00,VWS V13.01,2013-05-10 01:09:00,
2013-05-09 18:14:00,83.7,52.3,29.96,SE,146,2.7,4.0,34,0.00,,---,0.00,VWS V13.01,2013-05-10 01:14:00,
2013-05-09 18:19:00,83.7,52.3,29.98,SE,146,2.7,2.7,34,0.00,,---,0.00,VWS V13.01,2013-05-10 01:19:00,
2013-05-09 18:24:00,78.8,48.9,29.98,SE,146,2.7,2.7,35,0.00,,---,0.00,VWS V13.01,2013-05-10 01:24:00,
2013-05-09 18:29:00,78.4,48.5,29.98,SE,146,2.7,2.7,35,0.00,,---,0.00,VWS V13.01,2013-05-10 01:29:00,
2013-05-09 18:34:00,77.7,47.9,29.98,SE,146,2.7,2.7,35,0.00,,---,0.00,VWS V13.01,2013-05-10 01:34:00,
2013-05-09 18:39:00,77.2,47.4,29.98,SE,146,2.7,2.7,35,0.00,,---,0.00,VWS V13.01,2013-05-10 01:39:00,
2013-05-09 18:44:00,77.0,47.3,29.96,SE,146,2.7,2.7,35,0.00,,---,0.00,VWS V13.01,2013-05-10 01:44:00,
2013-05-09 18:49:00,76.8,47.1,29.96,SE,146,2.7,2.7,35,0.00,,---,0.00,VWS V13.01,2013-05-10 01:49:00,
2013-05-09 18:54:00,76.8,47.1,29.96,SE,146,2.7,2.7,35,0.00,,---,0.00,VWS V13.01,2013-05-10 01:54:00,
2013-05-09 18:59:00,76.6,47.0,29.96,SE,146,2.7,2.7,35,0.00,,---,0.00,VWS V13.01,2013-05-10 01:59:00,
2013-05-09 19:04:00,76.6,47.0,29.96,SE,146,2.7,2.7,35,0.00,,---,0.00,VWS V13.01,2013-05-10 02:04:00,
2013-05-09 19:09:00,76.1,46.5,29.98,SE,146,2.7,2.7,35,0.00,,---,0.00,VWS V13.01,2013-05-10 02:09:00,
2013-05-09 19:14:00,75.6,46.0,29.98,SE,146,2.7,2.7,35,0.00,,---,0.00,VWS V13.01,2013-05-10 02:14:00,
2013-05-09 19:19:00,75.6,46.0,29.98,SE,146,2.7,2.7,35,0.00,,---,0.00,VWS V13.01,2013-05-10 02:19:00,
2013-05-09 19:24:00,75.6,46.0,29.98,SE,146,2.7,2.7,35,0.00,,---,0.00,VWS V13.01,2013-05-10 02:24:00,
2013-05-09 19:29:00,75.6,46.0,29.98,SE,146,2.7,2.7,35,0.00,,---,0.00,VWS V13.01,2013-05-10 02:29:00,
2013-05-09 19:34:00,75.6,46.0,29.98,SE,146,2.7,2.7,35,0.00,,---,0.00,VWS V13.01,2013-05-10 02:34:00,
2013-05-09 19:39:00,75.6,46.0,29.98,SE,146,2.7,2.7,35,0.00,,---,0.00,VWS V13.01,2013-05-10 02:39:00,
2013-05-09 19:44:00,75.6,46.0,29.98,SE,146,2.7,2.7,35,0.00,,---,0.00,VWS V13.01,2013-05-10 02:44:00,
2013-05-09 19:51:00,75.6,46.0,29.98,SE,146,2.7,2.7,35,0.00,,---,0.00,VWS V13.01,2013-05-10 02:51:00,
2013-05-09 19:57:00,75.6,46.0,29.98,SE,146,2.7,2.7,35,0.00,,---,0.00,VWS V13.01,2013-05-10 02:57:00,
2013-05-09 20:03:00,75.6,46.0,29.98,SE,146,2.7,2.7,35,0.00,,---,0.00,VWS V13.01,2013-05-10 03:03:00,
2013-05-09 20:09:00,75.6,46.0,29.98,SE,146,2.7,2.7,35,0.00,,---,0.00,VWS V13.01,2013-05-10 03:09:00,
2013-05-09 20:14:00,71.8,45.5,29.98,SE,146,2.7,2.7,39,0.00,,---,0.00,VWS V13.01,2013-05-10 03:14:00,
2013-05-09 20:19:00,71.8,45.5,29.98,SE,146,2.7,2.7,39,0.00,,---,0.00,VWS V13.01,2013-05-10 03:19:00,
2013-05-09 20:24:00,71.8,45.5,29.98,SE,146,2.7,2.7,39,0.00,,---,0.00,VWS V13.01,2013-05-10 03:24:00,
2013-05-09 20:29:00,71.8,45.5,29.98,SE,146,2.7,2.7,39,0.00,,---,0.00,VWS V13.01,2013-05-10 03:29:00,
2013-05-09 20:34:00,71.8,45.5,29.98,SE,146,2.7,2.7,39,0.00,,---,0.00,VWS V13.01,2013-05-10 03:34:00,
2013-05-09 20:40:00,71.8,45.5,29.98,SE,146,2.7,2.7,39,0.00,,---,0.00,VWS V13.01,2013-05-10 03:40:00,
2013-05-09 20:45:00,71.8,45.5,29.98,SE,146,2.7,2.7,39,0.00,,---,0.00,VWS V13.01,2013-05-10 03:45:00,
2013-05-09 20:51:00,71.8,45.5,29.98,SE,146,2.7,2.7,39,0.00,,---,0.00,VWS V13.01,2013-05-10 03:51:00,
2013-05-09 20:57:00,71.8,45.5,29.98,SE,146,2.7,2.7,39,0.00,,---,0.00,VWS V13.01,2013-05-10 03:57:00,
2013-05-09 21:01:00,71.8,45.5,29.98,SE,146,2.7,2.7,39,0.00,,---,0.00,VWS V13.01,2013-05-10 04:01:00,
2013-05-09 21:03:00,71.8,45.5,30.01,SE,146,2.7,2.7,39,0.00,,---,0.00,VWS V13.01,2013-05-10 04:03:00,
2013-05-09 21:05:00,71.8,45.5,30.01,SE,146,2.7,2.7,39,0.00,,---,0.00,VWS V13.01,2013-05-10 04:05:00,
2013-05-09 21:07:00,71.8,45.5,30.01,SE,146,2.7,2.7,39,0.00,,---,0.00,VWS V13.01,2013-05-10 04:07:00,
2013-05-09 21:13:00,71.8,45.5,30.04,SE,146,2.7,2.7,39,0.00,,---,0.00,VWS V13.01,2013-05-10 04:13:00,
2013-05-09 21:14:00,71.8,45.5,30.04,SE,146,2.7,2.7,39,0.00,,---,0.00,VWS V13.01,2013-05-10 04:14:00,
2013-05-09 21:19:00,71.8,45.5,30.04,SE,146,2.7,2.7,39,0.00,,---,0.00,VWS V13.01,2013-05-10 04:19:00,
2013-05-09 21:24:00,71.8,45.5,30.04,SE,146,2.7,2.7,39,0.00,,---,0.00,VWS V13.01,2013-05-10 04:24:00,
2013-05-09 21:29:00,71.8,45.5,30.04,SE,146,2.7,2.7,39,0.00,,---,0.00,VWS V13.01,2013-05-10 04:29:00,
2013-05-09 21:34:00,71.8,45.5,30.04,SE,146,2.7,2.7,39,0.00,,---,0.00,VWS V13.01,2013-05-10 04:34:00,
2013-05-09 21:39:00,71.8,45.5,30.04,SE,146,2.7,2.7,39,0.00,,---,0.00,VWS V13.01,2013-05-10 04:39:00,
2013-05-09 21:44:00,71.8,45.5,30.04,SE,146,2.7,2.7,39,0.00,,---,0.00,VWS V13.01,2013-05-10 04:44:00,
2013-05-09 21:49:00,71.8,45.5,30.04,SE,146,2.7,2.7,39,0.00,,---,0.00,VWS V13.01,2013-05-10 04:49:00,
2013-05-09 21:55:00,71.8,45.5,30.04,SE,146,2.7,2.7,39,0.00,,---,0.00,VWS V13.01,2013-05-10 04:55:00,
2013-05-09 22:01:00,71.8,45.5,30.04,SE,146,2.7,2.7,39,0.00,,---,0.00,VWS V13.01,2013-05-10 05:01:00,
2013-05-09 22:07:00,71.8,45.5,30.04,SE,146,2.7,2.7,39,0.00,,---,0.00,VWS V13.01,2013-05-10 05:07:00,
2013-05-09 22:13:00,71.8,45.5,30.04,SE,146,2.7,2.7,39,0.00,,---,0.00,VWS V13.01,2013-05-10 05:13:00,
2013-05-09 22:19:00,71.8,45.5,30.04,SE,146,2.7,2.7,39,0.00,,---,0.00,VWS V13.01,2013-05-10 05:19:00,
2013-05-09 22:25:00,71.8,45.5,30.04,SE,146,2.7,2.7,39,0.00,,---,0.00,VWS V13.01,2013-05-10 05:25:00,
2013-05-09 22:31:00,71.8,45.5,30.04,SE,146,2.7,2.7,39,0.00,,---,0.00,VWS V13.01,2013-05-10 05:31:00,
2013-05-09 22:38:00,71.8,45.5,30.04,SE,146,2.7,2.7,39,0.00,,---,0.00,VWS V13.01,2013-05-10 05:38:00,
2013-05-09 22:44:00,71.8,45.5,30.04,SE,146,2.7,2.7,39,0.00,,---,0.00,VWS V13.01,2013-05-10 05:44:00,
2013-05-09 22:49:00,71.8,45.5,30.04,SE,146,2.7,2.7,39,0.00,,---,0.00,VWS V13.01,2013-05-10 05:49:00,
2013-05-09 22:55:00,71.8,45.5,30.04,SE,146,2.7,2.7,39,0.00,,---,0.00,VWS V13.01,2013-05-10 05:55:00,
2013-05-09 23:02:00,71.8,45.5,30.04,SE,146,2.7,2.7,39,0.00,,---,0.00,VWS V13.01,2013-05-10 06:02:00,
2013-05-09 23:08:00,71.8,45.5,30.04,SE,146,2.7,2.7,39,0.00,,---,0.00,VWS V13.01,2013-05-10 06:08:00,
2013-05-09 23:14:00,71.8,45.5,30.04,SE,146,2.7,2.7,39,0.00,,---,0.00,VWS V13.01,2013-05-10 06:14:00,
2013-05-09 23:19:00,71.8,45.5,30.04,SE,146,2.7,2.7,39,0.00,,---,0.00,VWS V13.01,2013-05-10 06:19:00,
2013-05-09 23:26:00,71.8,45.5,30.04,SE,146,2.7,2.7,39,0.00,,---,0.00,VWS V13.01,2013-05-10 06:26:00,
2013-05-09 23:32:00,71.8,45.5,30.04,SE,146,2.7,2.7,39,0.00,,---,0.00,VWS V13.01,2013-05-10 06:32:00,
2013-05-09 23:38:00,71.8,45.5,30.04,SE,146,2.7,2.7,39,0.00,,---,0.00,VWS V13.01,2013-05-10 06:38:00,
2013-05-09 23:44:00,71.8,45.5,30.04,SE,146,2.7,2.7,39,0.00,,---,0.00,VWS V13.01,2013-05-10 06:44:00,
2013-05-09 23:49:00,71.8,45.5,30.04,SE,146,2.7,2.7,39,0.00,,---,0.00,VWS V13.01,2013-05-10 06:49:00,
2013-05-09 23:54:00,71.8,45.5,30.04,SE,146,2.7,2.7,39,0.00,,---,0.00,VWS V13.01,2013-05-10 06:54:00,